Flight Track Log - Related Links

Times and Time Zones

All times are in EDT time to prevent confusion due to time zone crossing. See the SWA268 flight status page for this flight to view local times or setup timezone preferences in your user account.

Time Position Orientation Groundspeed Altitude Reporting Facility
EDT Latitude Longitude Course Direction KTS MPH feet Rate Location/Type
01:40PM 36.0617 -115.2608 258° West 254 292 6,000  Level Los Angeles Center
01:40PM 36.0139 -115.2797 198° South 283 326 7,600 2,942 Climbing Los Angeles Center
01:41PM 35.9378 -115.2694 174° South 300 345 11,100 3,150 Climbing Los Angeles Center
01:42PM 35.9256 -115.2311 111° Southeast 336 387 11,800 2,667 Climbing Los Angeles Center
01:43PM 35.9264 -115.1533 89° East 342 394 13,900 2,804 Climbing Los Angeles Center
01:44PM 35.9267 -115.0258 90° East 365 420 16,800 2,855 Climbing Los Angeles Center
01:45PM 35.9256 -114.8592 90° East 401 461 19,800 2,661 Climbing Los Angeles Center
01:46PM 35.9264 -114.7139 90° East 423 487 22,300 2,274 Climbing Los Angeles Center
01:47PM 35.9256 -114.5631 90° East 439 505 24,500 2,129 Climbing Los Angeles Center
01:48PM 35.9253 -114.4061 90° East 456 525 26,700 2,129 Climbing Los Angeles Center
01:49PM 35.9247 -114.2475 90° East 463 533 28,900 1,887 Climbing Los Angeles Center
01:50PM 35.9236 -114.0858 90° East 471 542 30,600 1,645 Climbing Los Angeles Center
01:51PM 35.9211 -113.8833 91° East 491 565 32,300 1,680 Climbing Los Angeles Center
01:52PM 35.8933 -113.7114 101° East 510 587 34,100 1,296 Climbing Los Angeles Center
01:53PM 35.8678 -113.5500 101° East 505 581 35,000 871 Climbing Los Angeles Center
01:54PM 35.8417 -113.3831 101° East 499 574 35,900 1,355 Climbing Los Angeles Center
01:55PM 35.8150 -113.2192 101° East 492 566 37,800 1,403 Climbing Los Angeles Center
01:56PM 35.7892 -113.0592 101° East 480 552 38,800 581 Climbing Los Angeles Center
01:57PM 35.7561 -112.8619 102° East 486 559 39,000 97 Climbing Los Angeles Center
01:58PM 35.7292 -112.6983 101° East 487 560 39,000  Level Los Angeles Center
01:59PM 35.7025 -112.5364 101° East 483 556 39,000  Level Los Angeles Center
02:00PM 35.6750 -112.3733 102° East 486 559 39,000  Level Los Angeles Center
02:01PM 35.6464 -112.2114 102° East 485 558 39,000  Level Los Angeles Center
02:02PM 35.6125 -112.0175 102° East 486 559 39,000  Level Albuquerque Center
02:03PM 35.5914 -111.8544 99° East 493 567 39,000  Level Albuquerque Center
02:04PM 35.5858 -111.6889 92° East 491 565 39,000  Level Albuquerque Center
02:05PM 35.5814 -111.5231 92° East 489 563 39,000  Level Albuquerque Center
02:06PM 35.5756 -111.3378 92° East 488 562 39,000  Level Albuquerque Center
02:07PM 35.5703 -111.1508 92° East 490 564 39,000  Level Albuquerque Center
02:09PM 35.5644 -110.9889 92° East 494 568 39,000  Level Albuquerque Center
02:10PM 35.5583 -110.7989 92° East 498 573 39,000  Level Albuquerque Center
02:11PM 35.5514 -110.6367 93° East 498 573 39,000  Level Albuquerque Center
02:12PM 35.5450 -110.4453 92° East 501 577 39,000  Level Albuquerque Center
02:13PM 35.5383 -110.2806 93° East 504 580 39,000  Level Albuquerque Center
02:14PM 35.5308 -110.0889 93° East 505 581 39,000  Level Albuquerque Center
02:15PM 35.5242 -109.9261 93° East 502 578 39,000  Level Albuquerque Center
02:16PM 35.5161 -109.7372 93° East 499 574 39,000  Level Albuquerque Center
02:17PM 35.5089 -109.5792 93° East 492 566 39,000  Level Albuquerque Center
02:18PM 35.5011 -109.3947 93° East 488 562 39,000  Level Albuquerque Center
02:19PM 35.4942 -109.2367 93° East 488 562 39,000  Level Albuquerque Center
02:20PM 35.4856 -109.0536 93° East 485 558 39,000 -194 Level Albuquerque Center
02:21PM 35.4778 -108.8964 93° East 485 558 38,600 -1,258 Descending Albuquerque Center
02:22PM 35.4806 -108.7142 89° East 483 556 36,400 -2,371 Descending Albuquerque Center
02:23PM 35.4839 -108.5572 88° East 483 556 33,700 -2,516 Descending Albuquerque Center
02:24PM 35.4892 -108.3761 88° East 480 552 31,200 -2,177 Descending Albuquerque Center
02:25PM 35.4808 -108.2286 94° East 463 533 29,200 -1,065 Descending Albuquerque Center
02:26PM 35.4697 -108.0636 95° East 440 506 29,000 -629 Descending Albuquerque Center
02:27PM 35.4603 -107.9200 95° East 442 509 27,900 -1,548 Descending Albuquerque Center
02:28PM 35.4508 -107.7636 94° East 422 486 25,800 -2,032 Descending Albuquerque Center
02:29PM 35.4406 -107.6364 96° East 400 460 23,700 -2,032 Descending Albuquerque Center
02:30PM 35.4322 -107.5106 95° East 392 451 21,600 -2,037 Descending Albuquerque Center
02:31PM 35.4239 -107.3944 95° East 381 438 20,000 -2,032 Descending Albuquerque Center
02:31PM 35.4244 -107.3678 89° East 381 438 19,500 -2,060 Descending Albuquerque Center
02:32PM 35.3750 -107.2689 121° Southeast 362 417 17,700 -1,907 Descending Albuquerque Center
02:33PM 35.3272 -107.1742 122° Southeast 350 403 16,100 -1,667 Descending Albuquerque Center
02:33PM 35.3178 -107.1572 124° Southeast 353 406 15,700 -1,747 Descending Albuquerque Center
02:34PM 35.2758 -107.0536 116° Southeast 343 395 13,800 -1,800 Descending Albuquerque Center
02:35PM 35.2503 -106.9597 108° East 324 373 12,400 -1,706 Descending Albuquerque Center
02:36PM 35.2225 -106.8603 109° East 311 358 10,700 -1,579 Descending Albuquerque Center
02:36PM 35.2203 -106.8456 100° East 316 364 10,400 -1,300 Descending Albuquerque Center
02:37PM 35.1975 -106.7656 109° East 292 336 9,400 -1,065 Descending Albuquerque Center
02:37PM 35.1936 -106.7494 106° East 305 351 9,300 -393 Descending Albuquerque Center
02:38PM 35.1722 -106.6811 111° Southeast 259 298 9,000 -290 Descending Albuquerque Center
02:38PM 35.1697 -106.6653 101° East 277 319 9,000 -100 Level Albuquerque Center
02:39PM 35.1486 -106.6067 114° Southeast 212 244 8,900 -290 Descending Albuquerque Center
02:40PM 35.1469 -106.5919 98° East 250 288 8,700 -1,075 Descending Albuquerque Center
02:40PM 35.1269 -106.5317 112° Southeast 197 227 7,700 -1,161 Descending Albuquerque Center
02:41PM 35.1200 -106.5181 122° Southeast 217 250 7,500 -787 Descending Albuquerque Center
02:41PM 35.0842 -106.5194 182° South 152 175 6,900 -774 Descending Albuquerque Center
02:42PM 35.0758 -106.5192 178° South 178 205 6,700 -700 Descending Albuquerque Center
02:42PM 35.0475 -106.5289 196° South 131 151 6,200 -677 Descending Albuquerque Center
02:43PM 35.0433 -106.5367 237° Southwest 153 176 6,000 -600 Descending Albuquerque Center
02:44PM 35.0436 -106.5881 270° West 146 168 5,400 -581 Descending Albuquerque Center

Login

Don't have an account? Register now (free) for customized features, flight alerts, and more!